Date,Installs,Update checks
2020-03-29,45,3
2020-03-30,52,20
2020-03-31,52,41
2020-04-01,40,54
2020-04-02,58,68
2020-04-03,53,85
2020-04-04,111,99
2020-04-05,74,129
2020-04-06,55,150
2020-04-07,51,165
2020-04-08,44,182
2020-04-09,49,196
2020-04-10,44,197
2020-04-11,56,202
2020-04-12,35,212
2020-04-13,56,221
2020-04-14,41,254
2020-04-15,62,228
2020-04-16,57,250
2020-04-17,47,253
2020-04-18,49,242
2020-04-19,58,269
2020-04-20,44,290
2020-04-21,44,307
2020-04-22,29,304
2020-04-23,39,301
2020-04-24,37,317
2020-04-25,31,303
2020-04-26,59,333
2020-04-27,53,351
2020-04-28,35,352
2020-04-29,38,352
2020-04-30,38,364
2020-05-01,36,305
2020-05-02,41,332
2020-05-03,38,330
2020-05-04,45,358
2020-05-05,49,369
2020-05-06,49,436
2020-05-07,53,428
2020-05-08,36,437
2020-05-09,43,441
2020-05-10,41,435
2020-05-11,26,449
2020-05-12,17,475
2020-05-13,31,469
2020-05-14,33,432
2020-05-15,16,470
2020-05-16,31,444
2020-05-17,22,452
2020-05-18,29,488
2020-05-19,36,482
2020-05-20,18,452
2020-05-21,47,482
2020-05-22,36,486
2020-05-23,55,465
2020-05-24,54,463
2020-05-25,62,528
2020-05-26,46,530
2020-05-27,41,532
2020-05-28,33,515
2020-05-29,33,524
2020-05-30,40,480
2020-05-31,41,530
2020-06-01,29,528
2020-06-02,31,564
2020-06-03,31,557
2020-06-04,29,562
2020-06-05,35,577
2020-06-06,52,514
2020-06-07,43,520
2020-06-08,44,565
2020-06-09,21,597
2020-06-10,18,597
2020-06-11,19,571
2020-06-12,34,596
2020-06-13,34,547
2020-06-14,32,567
2020-06-15,32,616
2020-06-16,26,622
2020-06-17,34,638
2020-06-18,18,609
2020-06-19,29,612
2020-06-20,23,583
2020-06-21,24,562
2020-06-22,25,638
2020-06-23,25,623
2020-06-24,29,623
2020-06-25,15,555
2020-06-26,28,537
2020-06-27,41,602
2020-06-28,42,651
2020-06-29,37,625
2020-06-30,31,648
2020-07-01,41,620
2020-07-02,56,675
2020-07-03,38,695
2020-07-04,45,619
2020-07-05,31,612
2020-07-06,26,703
2020-07-07,34,690
2020-07-08,37,663
2020-07-09,42,707
2020-07-10,32,724
2020-07-11,36,649
2020-07-12,37,643
2020-07-13,38,736
2020-07-14,25,705
2020-07-15,20,663
2020-07-16,25,716
2020-07-17,36,701
2020-07-18,36,653
2020-07-19,22,646
2020-07-20,23,722
2020-07-21,22,725
2020-07-22,25,716
2020-07-23,25,696
2020-07-24,47,735
2020-07-25,55,662
2020-07-26,29,700
2020-07-27,33,781
2020-07-28,31,779
2020-07-29,29,736
2020-07-30,35,782
2020-07-31,34,764
2020-08-01,33,716
2020-08-02,25,681
2020-08-03,23,809
2020-08-04,18,786
2020-08-05,34,759
2020-08-06,27,780
2020-08-07,37,774
2020-08-08,35,718
2020-08-09,25,733
2020-08-10,24,812
2020-08-11,16,792
2020-08-12,23,800
2020-08-13,28,790
2020-08-14,21,808
2020-08-15,25,733
2020-08-16,15,716
2020-08-17,17,814
2020-08-18,21,776
2020-08-19,23,778
2020-08-20,20,801
2020-08-21,33,789
2020-08-22,40,766
2020-08-23,34,787
2020-08-24,39,837
2020-08-25,20,821
2020-08-26,35,818
2020-08-27,29,833
2020-08-28,25,868
2020-08-29,33,783
2020-08-30,25,740
2020-08-31,22,873
2020-09-01,30,868
2020-09-02,22,832
2020-09-03,22,830
2020-09-04,17,849
2020-09-05,22,790
2020-09-06,29,782
2020-09-07,28,900
2020-09-08,25,867
2020-09-09,21,855
2020-09-10,21,856
2020-09-11,21,842
2020-09-12,28,767
2020-09-13,22,804
2020-09-14,18,897
2020-09-15,24,851
2020-09-16,12,836
2020-09-17,22,866
2020-09-18,16,831
2020-09-19,17,808
2020-09-20,24,794
2020-09-21,29,896
2020-09-22,29,894
2020-09-23,25,860
2020-09-24,18,851
2020-09-25,18,880
2020-09-26,24,791
2020-09-27,26,874
2020-09-28,14,854
2020-09-29,25,828
2020-09-30,19,846
2020-10-01,34,669
2020-10-02,40,665
2020-10-03,42,703
2020-10-04,38,714
2020-10-05,31,719
2020-10-06,37,794
2020-10-07,27,769
2020-10-08,28,854
2020-10-09,38,953
2020-10-10,42,923
2020-10-11,37,824
2020-10-12,26,944
2020-10-13,27,951
2020-10-14,32,947
2020-10-15,20,907
2020-10-16,24,943
2020-10-17,20,843
2020-10-18,30,822
2020-10-19,31,929
2020-10-20,18,944
2020-10-21,27,937
2020-10-22,22,911
2020-10-23,21,922
2020-10-24,36,862
2020-10-25,29,862
2020-10-26,21,948
2020-10-27,20,945
2020-10-28,17,938
2020-10-29,27,937
2020-10-30,23,928
2020-10-31,33,882
2020-11-01,27,836
2020-11-02,34,975
2020-11-03,36,979
2020-11-04,33,974
2020-11-05,33,975
2020-11-06,21,976
2020-11-07,26,910
2020-11-08,32,863
2020-11-09,19,998
2020-11-10,21,940
2020-11-11,19,993
2020-11-12,33,965
2020-11-13,20,964
2020-11-14,34,935
2020-11-15,39,948
2020-11-16,31,1017
2020-11-17,31,1040
2020-11-18,26,1031
2020-11-19,29,1045
2020-11-20,26,1028
2020-11-21,33,1005
2020-11-22,21,983
2020-11-23,19,1082
2020-11-24,40,1064
2020-11-25,33,1084
2020-11-26,34,1108
2020-11-27,28,1111
2020-11-28,29,979
2020-11-29,29,983
2020-11-30,21,1105
2020-12-01,37,1081
2020-12-02,32,1076
2020-12-03,35,1087
2020-12-04,25,1101
2020-12-05,26,1023
2020-12-06,29,1001
2020-12-07,14,1151
2020-12-08,16,1116
2020-12-09,13,1133
2020-12-10,20,1037
2020-12-11,19,1105
2020-12-12,21,1023
2020-12-13,26,1032
2020-12-14,18,1130
2020-12-15,17,1094
2020-12-16,23,1096
2020-12-17,14,1040
2020-12-18,16,1130
2020-12-19,27,971
2020-12-20,32,986
2020-12-21,25,1139
2020-12-22,24,1071
2020-12-23,27,1079
2020-12-24,21,1096
2020-12-25,28,1065
2020-12-26,22,1052
2020-12-27,18,992
2020-12-28,17,1195
2020-12-29,25,1092
2020-12-30,29,1139
2020-12-31,20,1097
2021-01-01,19,906
2021-01-02,24,979
2021-01-03,22,1016
2021-01-04,21,1196
2021-01-05,23,1112
2021-01-06,27,1159
2021-01-07,20,1124
2021-01-08,20,1118
2021-01-09,25,1072
2021-01-10,238,1130
2021-01-11,269,1429
2021-01-12,140,1468
2021-01-13,101,1540
2021-01-14,92,1523
2021-01-15,65,1545
2021-01-16,62,1451
2021-01-17,68,1435
2021-01-18,60,1670
2021-01-19,40,1703
2021-01-20,33,1660
2021-01-21,26,1651
2021-01-22,32,1608
2021-01-23,48,1535
2021-01-24,37,1423
2021-01-25,20,1692
2021-01-26,39,1667
2021-01-27,29,1696
2021-01-28,22,1625
2021-01-29,25,1643
2021-01-30,24,1393
2021-01-31,36,1461
2021-02-01,26,1677
2021-02-02,25,1681
2021-02-03,27,1681
2021-02-04,20,1622
2021-02-05,22,1588
2021-02-06,36,1486
2021-02-07,33,1556
2021-02-08,30,1457
2021-02-09,31,1106
2021-02-10,23,975
2021-02-11,22,898
2021-02-12,26,851
2021-02-13,40,895
2021-02-14,30,693
2021-02-15,31,1359
2021-02-16,30,1338
2021-02-17,26,1417
2021-02-18,34,1624
2021-02-19,28,1631
2021-02-20,43,1693
2021-02-21,28,1543
2021-02-22,24,1643
2021-02-23,22,1663
2021-02-24,25,1591
2021-02-25,31,1681
2021-02-26,32,1713
2021-02-27,26,1523
2021-02-28,25,1599
2021-03-01,30,1738
2021-03-02,31,1778
2021-03-03,29,1766
2021-03-04,21,1662
2021-03-05,22,1700
2021-03-06,41,1645
2021-03-07,45,1583
2021-03-08,34,1353
2021-03-09,38,1348
2021-03-10,39,1412
2021-03-11,38,1348
2021-03-12,30,1384
2021-03-13,39,1297
2021-03-14,41,1207
2021-03-15,38,1340
2021-03-16,48,1570
2021-03-17,37,1242
2021-03-18,35,1325
2021-03-19,36,1251
2021-03-20,32,1236
2021-03-21,27,1033
2021-03-22,28,1277
2021-03-23,40,1069
2021-03-24,48,1219
2021-03-25,23,1489
2021-03-26,29,1376
2021-03-27,35,1067
2021-03-28,37,1105
2021-03-29,41,1184
2021-03-30,34,1332
2021-03-31,44,1112
2021-04-01,32,1276
2021-04-02,33,1133
2021-04-03,28,849
2021-04-04,42,1089
2021-04-05,46,1091
2021-04-06,55,1346
2021-04-07,46,1346
2021-04-08,47,1325
2021-04-09,35,1311
2021-04-10,62,1205
2021-04-11,99,1151
2021-04-12,89,1075
2021-04-13,85,1247
2021-04-14,67,1354
2021-04-15,85,1319
2021-04-16,74,1987
2021-04-17,67,1772
2021-04-18,60,1753
2021-04-19,47,1972
2021-04-20,48,1997
2021-04-21,44,1954
2021-04-22,66,1866
2021-04-23,46,1975
2021-04-24,59,1715
2021-04-25,51,1932
2021-04-26,45,2021
2021-04-27,41,1916
2021-04-28,71,1924
2021-04-29,57,1924
2021-04-30,53,1933
2021-05-01,41,1529
2021-05-02,55,1523
2021-05-03,60,1567
2021-05-04,77,1769
2021-05-05,68,1836
2021-05-06,47,2029
2021-05-07,61,2099
2021-05-08,67,2072
2021-05-09,55,1858
2021-05-10,47,2044
2021-05-11,33,2052
2021-05-12,44,2065
2021-05-13,54,2012
2021-05-14,59,2082
2021-05-15,66,1937
2021-05-16,71,1893
2021-05-17,59,2186
2021-05-18,79,2118
2021-05-19,79,2160
2021-05-20,70,2023
2021-05-21,122,2151
2021-05-22,102,1991
2021-05-23,125,2037
2021-05-24,81,2287
2021-05-25,60,2261
2021-05-26,59,2232
2021-05-27,80,2244
2021-05-28,66,2276
2021-05-29,69,2106
2021-05-30,89,2028
2021-05-31,89,2379
2021-06-01,62,2216
2021-06-02,103,2340
2021-06-03,103,2317
2021-06-04,109,2367
2021-06-05,106,1709
2021-06-06,158,2225
2021-06-07,119,2392
2021-06-08,87,2549
2021-06-09,125,2480
2021-06-10,96,2502
2021-06-11,102,2495
2021-06-12,83,2306
2021-06-13,91,2225
2021-06-14,63,2333
2021-06-15,48,2701
2021-06-16,59,2629
2021-06-17,56,2703
2021-06-18,46,2645
2021-06-19,53,2456
2021-06-20,38,2356
2021-06-21,45,2700
2021-06-22,40,2596
2021-06-23,52,2662
2021-06-24,54,2582
2021-06-25,50,2549
2021-06-26,52,2380
2021-06-27,56,2372
2021-06-28,36,2637
2021-06-29,60,2622
2021-06-30,54,2637
2021-07-01,49,2614
2021-07-02,33,2555
2021-07-03,47,2360
2021-07-04,46,2374
2021-07-05,45,2630
2021-07-06,40,2581
2021-07-07,47,2665
2021-07-08,40,2537
2021-07-09,42,2542
2021-07-10,38,2262
2021-07-11,35,2251
2021-07-12,26,2647
2021-07-13,45,2553
2021-07-14,39,2547
2021-07-15,41,2470
2021-07-16,49,2483
2021-07-17,51,2318
2021-07-18,50,105
2021-07-19,38,374
2021-07-20,54,2717
2021-07-21,47,2438
2021-07-22,50,2554
2021-07-23,48,2557
2021-07-24,64,2302
2021-07-25,76,2328
2021-07-26,65,2605
2021-07-27,72,2634
2021-07-28,57,2576
2021-07-29,67,2601
2021-07-30,58,2551
2021-07-31,65,2463
2021-08-01,68,2329
2021-08-02,48,2718
2021-08-03,57,2711
2021-08-04,52,2612
2021-08-05,36,2731
2021-08-06,69,2650
2021-08-07,83,2478
2021-08-08,95,2437
2021-08-09,233,2839
2021-08-10,126,2895
2021-08-11,89,2852
2021-08-12,58,2901
2021-08-13,68,2878
2021-08-14,79,2642
2021-08-15,69,2597
2021-08-16,56,2927
2021-08-17,54,2889
2021-08-18,57,2987
2021-08-19,83,2929
2021-08-20,46,2858
2021-08-21,70,2688
2021-08-22,60,2694
2021-08-23,56,3020
2021-08-24,50,2990
2021-08-25,57,2953
2021-08-26,52,3003
2021-08-27,65,2942
2021-08-28,68,2749
2021-08-29,51,2676
2021-08-30,48,3044
2021-08-31,53,3008
2021-09-01,57,2958
2021-09-02,47,3010
2021-09-03,69,2957
2021-09-04,50,2646
2021-09-05,61,2668
2021-09-06,44,3013
2021-09-07,33,2736
2021-09-08,42,2998
2021-09-09,48,2968
2021-09-10,24,2959
2021-09-11,43,2695
2021-09-12,39,2671
2021-09-13,30,3009
2021-09-14,57,3012
2021-09-15,55,2999
2021-09-16,56,2993
2021-09-17,46,2888
2021-09-18,39,2838
2021-09-19,45,2612
2021-09-20,44,2514
2021-09-21,55,2613
2021-09-22,41,3039
2021-09-23,34,2987
2021-09-24,37,3043
2021-09-25,59,2781
2021-09-26,42,3012
2021-09-27,33,3071
2021-09-28,47,2983
2021-09-29,45,2894
2021-09-30,41,2921
2021-10-01,46,2384
2021-10-02,38,2383
2021-10-03,40,2336
2021-10-04,43,2449
2021-10-05,52,2601
2021-10-06,42,2684
2021-10-07,52,2869
2021-10-08,42,3057
2021-10-09,57,3065
2021-10-10,42,2834
2021-10-11,31,3052
2021-10-12,39,3059
2021-10-13,37,3078
2021-10-14,56,3091
2021-10-15,46,3070
2021-10-16,34,2799
2021-10-17,34,2726
2021-10-18,30,3035
2021-10-19,33,3027
2021-10-20,38,3078
2021-10-21,26,3053
2021-10-22,40,3029
2021-10-23,9,2794
2021-10-24,33,2809
2021-10-25,41,3062
2021-10-26,43,3061
2021-10-27,40,3087
2021-10-28,39,3055
2021-10-29,49,3036
2021-10-30,61,2850
2021-10-31,45,2756
2021-11-01,33,3134
2021-11-02,33,3132
2021-11-03,34,3076
2021-11-04,47,3150
2021-11-05,40,3132
2021-11-06,54,2869
2021-11-07,33,2822
2021-11-08,44,3116
2021-11-09,51,3056
2021-11-10,47,3097
2021-11-11,42,3131
2021-11-12,61,3082
2021-11-13,49,2864
2021-11-14,55,2798
2021-11-15,52,3175
2021-11-16,49,3188
2021-11-17,66,3125
2021-11-18,58,3140
2021-11-19,66,3138
2021-11-20,106,2946
2021-11-21,106,2860
2021-11-22,94,3163
2021-11-23,97,3256
2021-11-24,83,3214
2021-11-25,72,3261
2021-11-26,64,3301
2021-11-27,96,2943
2021-11-28,81,2962
2021-11-29,68,3441
2021-11-30,67,3365
2021-12-01,55,3392
2021-12-02,48,3366
2021-12-03,39,3358
2021-12-04,52,3083
2021-12-05,42,3079
2021-12-06,53,3384
2021-12-07,51,3412
2021-12-08,48,3355
2021-12-09,51,3376
2021-12-10,54,3373
2021-12-11,43,3093
2021-12-12,43,3070
2021-12-13,41,3433
2021-12-14,43,3450
2021-12-15,44,3404
2021-12-16,55,3440
2021-12-17,43,3339
2021-12-18,41,3087
2021-12-19,51,3078
2021-12-20,48,3455
2021-12-21,51,3425
2021-12-22,53,3438
2021-12-23,40,3422
2021-12-24,51,3383
2021-12-25,62,3085
2021-12-26,43,3040
2021-12-27,38,3456
2021-12-28,40,3430
2021-12-29,44,3393
2021-12-30,35,3396
2021-12-31,39,3264
2022-01-01,33,2901
2022-01-02,39,2936
2022-01-03,34,3173
2022-01-04,40,3461
2022-01-05,58,3516
2022-01-06,40,3415
2022-01-07,42,3456
2022-01-08,37,3164
2022-01-09,40,204
2022-01-10,40,0
2022-01-11,38,3611
2022-01-12,40,3456
2022-01-13,38,3408
2022-01-14,33,3413
2022-01-15,51,3127
2022-01-16,33,3103
2022-01-17,38,3484
2022-01-18,41,3448
2022-01-19,21,3392
2022-01-20,40,3454
2022-01-21,35,3309
2022-01-22,44,3187
2022-01-23,60,3089
2022-01-24,69,3457
2022-01-25,48,3357
2022-01-26,36,3286
2022-01-27,56,3234
2022-01-28,50,3076
2022-01-29,49,2881
2022-01-30,28,2662
2022-01-31,19,2311
2022-02-01,36,2426
2022-02-02,47,2437
2022-02-03,34,2548
2022-02-04,36,2567
2022-02-05,36,2687
2022-02-06,45,2931
2022-02-07,50,3228
2022-02-08,51,3386
2022-02-09,34,3418
2022-02-10,53,3423
2022-02-11,42,3495
2022-02-12,36,3252
2022-02-13,31,3085
2022-02-14,33,3445
2022-02-15,26,3420
2022-02-16,42,3512
2022-02-17,34,3523
2022-02-18,28,3506
2022-02-19,36,3223
2022-02-20,33,3165
2022-02-21,24,3594
2022-02-22,38,3509
2022-02-23,34,3529
2022-02-24,34,3542
2022-02-25,33,3483
2022-02-26,50,3256
2022-02-27,37,3166
2022-02-28,32,3589
2022-03-01,23,3556
2022-03-02,33,3510
2022-03-03,25,3494
2022-03-04,32,3579
2022-03-05,28,3158
2022-03-06,43,3172
2022-03-07,43,3579
2022-03-08,39,3563
2022-03-09,30,3653
2022-03-10,36,3567
2022-03-11,41,3516
2022-03-12,39,3322
2022-03-13,41,3287
2022-03-14,33,3592
2022-03-15,44,3559
2022-03-16,41,3570
2022-03-17,24,3668
2022-03-18,34,3650
2022-03-19,38,3387
2022-03-20,26,3329
2022-03-21,36,3690
2022-03-22,51,3625
2022-03-23,38,3740
2022-03-24,34,3660
2022-03-25,48,3692
2022-03-26,35,3451
2022-03-27,35,3319
2022-03-28,31,3694
2022-03-29,33,3642
2022-03-30,32,3652
2022-03-31,29,3746
2022-04-01,20,3605
2022-04-02,29,3521
2022-04-03,34,3209
2022-04-04,26,3322
2022-04-05,36,3291
2022-04-06,20,3612
2022-04-07,25,3647
2022-04-08,33,3664
2022-04-09,38,3355
2022-04-10,40,3336
2022-04-11,40,3624
2022-04-12,35,3723
2022-04-13,34,3655
2022-04-14,35,3618
2022-04-15,41,3586
2022-04-16,43,3366
2022-04-17,43,3270
2022-04-18,34,3610
2022-04-19,28,3575
2022-04-20,38,3645
2022-04-21,37,3578
2022-04-22,42,3581
2022-04-23,33,3323
2022-04-24,31,3557
2022-04-25,42,3564
2022-04-26,50,3524
2022-04-27,44,3605
2022-04-28,42,3536
2022-04-29,51,3454
2022-04-30,38,3198
2022-05-01,52,3069
2022-05-02,40,3180
2022-05-03,46,3212
2022-05-04,38,3322
2022-05-05,38,3477
2022-05-06,44,3630
2022-05-07,36,3525
2022-05-08,50,3296
2022-05-09,28,3590
2022-05-10,38,3592
2022-05-11,28,3701
2022-05-12,31,3651
2022-05-13,37,3678
2022-05-14,31,3304
2022-05-15,41,3258
2022-05-16,30,3562
2022-05-17,33,3612
2022-05-18,33,3509
2022-05-19,34,3576
2022-05-20,29,3478
2022-05-21,27,3287
2022-05-22,26,3238
2022-05-23,33,3628
2022-05-24,35,3548
2022-05-25,23,3453
2022-05-26,25,3501
2022-05-27,32,3521
2022-05-28,51,3251
2022-05-29,70,3204
2022-05-30,39,3536
2022-05-31,26,3579
2022-06-01,29,3426
2022-06-02,26,3390
2022-06-03,25,2899
2022-06-04,25,2964
2022-06-05,36,3044
2022-06-06,20,3532
2022-06-07,36,3396
2022-06-08,20,3407
2022-06-09,28,3450
2022-06-10,35,3345
2022-06-11,30,3207
2022-06-12,28,3090
2022-06-13,21,3532
2022-06-14,11,3391
2022-06-15,29,3232
2022-06-16,17,3412
2022-06-17,22,3399
2022-06-18,28,3064
2022-06-19,19,3092
2022-06-20,22,3358
2022-06-21,29,3374
2022-06-22,21,3446
2022-06-23,23,3368
2022-06-24,19,3405
2022-06-25,16,3010
2022-06-26,21,3076
2022-06-27,15,3349
2022-06-28,12,3466
2022-06-29,29,3352
2022-06-30,25,3297
2022-07-01,22,3271
2022-07-02,23,3075
2022-07-03,24,3070
2022-07-04,17,3310
2022-07-05,23,3372
2022-07-06,19,3334
2022-07-07,21,3330
2022-07-08,15,3244
2022-07-09,28,2943
2022-07-10,21,2966
2022-07-11,13,3317
2022-07-12,21,3269
2022-07-13,22,3274
2022-07-14,17,3276
2022-07-15,26,3289
2022-07-16,18,2947
2022-07-17,18,2926
2022-07-18,26,3330
2022-07-19,37,3267
2022-07-20,31,3316
2022-07-21,23,3239
2022-07-22,22,3287
2022-07-23,15,2949
2022-07-24,24,2064
2022-07-25,19,3286
2022-07-26,16,3145
2022-07-27,17,3198
2022-07-28,13,3203
2022-07-29,18,3204
2022-07-30,15,2761
2022-07-31,22,2897
2022-08-01,20,3210
2022-08-02,9,3278
2022-08-03,19,3107
2022-08-04,21,3106
2022-08-05,22,3115
2022-08-06,22,2889
2022-08-07,21,2811
2022-08-08,16,3117
2022-08-09,21,3161
2022-08-10,31,3153
2022-08-11,18,3161
2022-08-12,18,3133
2022-08-13,25,2826
2022-08-14,24,2868
2022-08-15,4,3137
2022-08-16,14,3116
2022-08-17,4,3140
2022-08-18,15,3066
2022-08-19,29,3129
2022-08-20,34,2867
2022-08-21,34,2888
2022-08-22,29,3203
2022-08-23,22,3151
2022-08-24,30,3149
2022-08-25,17,3139
2022-08-26,33,3106
2022-08-27,28,2876
2022-08-28,30,2844
2022-08-29,37,3241
2022-08-30,38,3197
2022-08-31,29,3204
2022-09-01,24,3235
2022-09-02,33,3241
2022-09-03,36,2970
2022-09-04,40,2863
2022-09-05,41,3255
2022-09-06,18,3249
2022-09-07,27,3213
2022-09-08,29,3176
2022-09-09,24,3152
2022-09-10,26,2625
2022-09-11,30,2776
2022-09-12,34,2957
2022-09-13,26,3305
2022-09-14,20,3312
2022-09-15,26,3349
2022-09-16,24,3244
2022-09-17,39,3035
2022-09-18,31,2970
2022-09-19,32,3265
2022-09-20,33,3334
2022-09-21,20,3292
2022-09-22,24,3217
2022-09-23,19,3239
2022-09-24,16,2993
2022-09-25,11,2895
2022-09-26,18,3241
2022-09-27,21,3181
2022-09-28,13,3161
2022-09-29,14,3203
2022-09-30,18,3080
2022-10-01,18,2631
2022-10-02,21,2597
2022-10-03,15,2586
2022-10-04,20,2739
2022-10-05,15,2748
2022-10-06,25,2824
2022-10-07,28,2937
2022-10-08,27,3261
2022-10-09,31,3173
2022-10-10,18,3216
2022-10-11,18,3281
2022-10-12,27,3201
2022-10-13,21,3201
2022-10-14,18,3181
2022-10-15,30,3034
2022-10-16,30,2898
2022-10-17,29,3257
2022-10-18,26,3227
2022-10-19,34,3250
2022-10-20,28,3210
2022-10-21,30,3248
2022-10-22,27,2992
2022-10-23,23,3011
2022-10-24,21,3374
2022-10-25,26,3232
2022-10-26,30,3221
2022-10-27,18,3185
2022-10-28,20,3210
2022-10-29,25,2904
2022-10-30,25,2876
2022-10-31,20,3334
2022-11-01,29,3135
2022-11-02,30,3197
2022-11-03,28,3260
2022-11-04,20,3217
2022-11-05,28,2952
2022-11-06,29,2924
2022-11-07,24,3240
2022-11-08,28,3163
2022-11-09,25,3202
2022-11-10,25,3204
2022-11-11,38,3249
2022-11-12,35,2954
2022-11-13,22,2929
2022-11-14,21,3225
2022-11-15,25,3245
2022-11-16,27,3264
2022-11-17,36,3037
2022-11-18,64,3041
2022-11-19,36,2852
2022-11-20,44,2868
2022-11-21,25,3038
2022-11-22,23,3300
2022-11-23,18,3329
2022-11-24,25,3329
2022-11-25,25,3285
2022-11-26,25,2950
2022-11-27,39,2964
2022-11-28,48,3341
2022-11-29,39,3283
2022-11-30,38,3190
2022-12-01,43,3114
2022-12-02,62,3182
2022-12-03,77,2858
2022-12-04,64,2876
2022-12-05,47,3040
2022-12-06,49,3221
2022-12-07,49,3156
2022-12-08,40,3224
2022-12-09,32,3151
2022-12-10,31,2806
2022-12-11,50,2660
2022-12-12,25,3154
2022-12-13,27,2910
2022-12-14,34,2782
2022-12-15,40,3092
2022-12-16,33,2817
2022-12-17,30,2439
2022-12-18,34,2555
2022-12-19,32,2857
2022-12-20,28,2686
2022-12-21,28,2476
2022-12-22,35,2736
2022-12-23,22,2680
2022-12-24,30,2408
2022-12-25,22,2657
2022-12-26,38,2841
2022-12-27,26,2972
2022-12-28,33,2875
2022-12-29,29,2902
2022-12-30,27,2941
2022-12-31,35,2449
2023-01-01,36,2552
2023-01-02,34,2864
2023-01-03,38,3271
2023-01-04,33,3154
2023-01-05,42,3110
2023-01-06,32,3154
2023-01-07,39,2877
2023-01-08,36,2788
2023-01-09,29,3124
2023-01-10,40,3097
2023-01-11,31,3059
2023-01-12,37,3150
2023-01-13,26,2987
2023-01-14,39,2827
2023-01-15,41,2725
2023-01-16,29,2987
2023-01-17,24,2854
2023-01-18,42,2673
2023-01-19,27,2589
2023-01-20,20,2374
2023-01-21,17,2043
2023-01-22,32,2117
2023-01-23,38,2081
2023-01-24,33,2150
2023-01-25,41,2277
2023-01-26,37,2418
2023-01-27,43,2532
2023-01-28,41,2824
2023-01-29,49,2876
2023-01-30,40,3024
2023-01-31,24,3189
2023-02-01,42,3153
2023-02-02,26,3187
2023-02-03,38,3138
2023-02-04,36,2878
2023-02-05,19,2798
2023-02-06,18,3188
2023-02-07,31,3231
2023-02-08,40,3237
2023-02-09,26,3227
2023-02-10,32,3151
2023-02-11,31,2968
2023-02-12,23,2970
2023-02-13,30,3292
2023-02-14,35,3160
2023-02-15,27,3196
2023-02-16,21,3203
2023-02-17,26,3220
2023-02-18,35,2875
2023-02-19,34,2877
2023-02-20,25,3296
2023-02-21,24,3250
2023-02-22,29,3290
2023-02-23,24,3255
2023-02-24,27,3204
2023-02-25,21,2869
2023-02-26,26,2927
2023-02-27,23,3238
2023-02-28,19,3210
2023-03-01,30,3214
2023-03-02,31,3208
2023-03-03,26,3187
2023-03-04,24,2782
2023-03-05,18,2819
2023-03-06,26,3150
2023-03-07,35,3177
2023-03-08,25,3171
2023-03-09,19,3114
2023-03-10,22,3230
2023-03-11,25,2798
2023-03-12,34,2825
2023-03-13,21,3324
2023-03-14,33,3114
2023-03-15,38,3153
2023-03-16,27,3078
2023-03-17,36,3050
2023-03-18,42,2803
2023-03-19,20,2746
2023-03-20,35,3177
2023-03-21,35,3198
2023-03-22,27,3114
2023-03-23,28,3168
2023-03-24,43,3073
2023-03-25,42,2740
2023-03-26,33,2800
2023-03-27,24,3185
2023-03-28,21,3108
2023-03-29,24,2946
2023-03-30,23,3056
2023-03-31,37,3016
2023-04-01,18,2717
2023-04-02,33,2679
2023-04-03,22,3147
2023-04-04,16,3144
2023-04-05,28,2850
2023-04-06,19,3135
2023-04-07,23,3022
2023-04-08,24,2735
2023-04-09,29,2779
2023-04-10,30,3057
2023-04-11,30,3077
2023-04-12,37,3110
2023-04-13,32,3069
2023-04-14,36,3066
2023-04-15,37,2731
2023-04-16,27,2680
2023-04-17,31,3146
2023-04-18,28,3016
2023-04-19,25,3085
2023-04-20,23,3008
2023-04-21,32,2976
2023-04-22,30,2774
2023-04-23,30,3022
2023-04-24,30,3051
2023-04-25,35,3068
2023-04-26,19,3020
2023-04-27,22,3007
2023-04-28,28,2912
2023-04-29,29,2461
2023-04-30,22,2346
2023-05-01,17,2346
2023-05-02,33,2461
2023-05-03,32,2731
2023-05-04,33,3139
2023-05-05,39,3058
2023-05-06,36,3081
2023-05-07,38,2815
2023-05-08,21,3123
2023-05-09,18,3064
2023-05-10,27,3069
2023-05-11,17,3115
2023-05-12,27,3033
2023-05-13,35,2722
2023-05-14,27,2726
2023-05-15,24,3116
2023-05-16,28,3068
2023-05-17,37,3085
2023-05-18,24,2986
2023-05-19,16,3003
2023-05-20,30,2700
2023-05-21,27,2713
2023-05-22,21,3007
2023-05-23,18,3022
2023-05-24,8,3079
2023-05-25,17,2998
2023-05-26,15,3030
2023-05-27,27,2699
2023-05-28,14,2665
2023-05-29,15,2972
2023-05-30,6,2969
2023-05-31,19,3059
2023-06-01,13,3015
2023-06-02,15,2934
2023-06-03,16,2724
2023-06-04,14,2657
2023-06-05,16,3017
2023-06-06,10,2939
2023-06-07,16,2946
2023-06-08,15,2974
2023-06-09,26,2895
2023-06-10,18,2662
2023-06-11,28,2608
2023-06-12,20,2999
2023-06-13,16,2956
2023-06-14,18,2938
2023-06-15,18,2919
2023-06-16,21,2923
2023-06-17,24,2640
2023-06-18,22,2645
2023-06-19,9,2935
2023-06-20,13,2873
2023-06-21,15,2825
2023-06-22,22,2366
2023-06-23,15,2429
2023-06-24,19,2628
2023-06-25,19,2902
2023-06-26,14,2853
2023-06-27,13,2865
2023-06-28,15,2869
2023-06-29,18,2900
2023-06-30,15,2883
2023-07-01,13,2499
2023-07-02,10,2587
2023-07-03,13,2872
2023-07-04,11,2851
2023-07-05,16,2868
2023-07-06,12,2852
2023-07-07,5,2735
2023-07-08,15,2492
2023-07-09,22,2447
2023-07-10,11,2846
2023-07-11,18,2733
2023-07-12,14,2787
2023-07-13,22,2732
2023-07-14,19,2788
2023-07-15,18,2434
2023-07-16,13,2443
2023-07-17,16,2769
2023-07-18,15,2762
2023-07-19,14,2756
2023-07-20,15,2741
2023-07-21,21,2722
2023-07-22,21,2342
2023-07-23,13,2364
2023-07-24,8,2795
2023-07-25,23,2682
2023-07-26,15,2652
2023-07-27,9,2693
2023-07-28,18,2670
2023-07-29,11,2421
2023-07-30,12,2344
2023-07-31,19,2766
2023-08-01,15,2731
2023-08-02,13,2691
2023-08-03,13,2586
2023-08-04,24,2664
2023-08-05,19,2382
2023-08-06,26,2364
2023-08-07,22,2709
2023-08-08,16,2727
2023-08-09,16,2705
2023-08-10,12,2611
2023-08-11,16,2578
2023-08-12,19,2425
2023-08-13,12,2334
2023-08-14,15,2729
2023-08-15,13,2637
2023-08-16,10,2583
2023-08-17,10,2633
2023-08-18,13,2544
2023-08-19,13,2407
2023-08-20,9,2380
2023-08-21,7,2682
2023-08-22,4,2573
2023-08-23,7,2689
2023-08-24,13,2653
2023-08-25,13,2603
2023-08-26,22,2381
2023-08-27,15,2391
2023-08-28,18,2764
2023-08-29,7,2676
2023-08-30,14,2670
2023-08-31,13,2637
2023-09-01,13,2619
2023-09-02,13,2370
2023-09-03,17,2297
2023-09-04,12,2503
2023-09-05,9,2529
2023-09-06,7,2509
2023-09-07,11,2532
2023-09-08,17,2546
2023-09-09,13,2314
2023-09-10,7,2228
2023-09-11,3,2726
2023-09-12,18,2657
2023-09-13,13,2650
2023-09-14,7,2643
2023-09-15,10,2603
2023-09-16,23,2322
2023-09-17,15,2330
2023-09-18,17,2682
2023-09-19,22,2633
2023-09-20,19,2568
2023-09-21,10,2622
2023-09-22,11,2592
2023-09-23,18,2330
2023-09-24,10,2339